Retour au catalogue

CZ-4B DEB

ActifSSO
NORAD 35404·DEBRIS·🇨🇳 China

Lancé May 15, 2002 depuis Taiyuan Satellite Launch Center

Loading…

Prochains Passages (prochaines 24 heures)

TLE

FraisSource: Space-Track

Époque: Sep 14, 2026, 09:18 UTC

1 35404U 02024J   26257.38816154  .00000018  00000-0  29105-4 0  9992
2 35404  98.8060 304.6892 0051378 308.4804 116.3941 14.20018960254582

Suivez CZ-4B DEB en temps réel avec AllMySat

Download on the App Store